Weather observations for the past three days for
Ukiah Municipal Airport
Imperial (Metric)
Date Time (pdt) Wind (mph) Vis. (mi.) Weather Sky Cond. Temperature (ºF) Relative Humidity Wind Chill (°F) Heat Index (°F) Pressure Precipitation (in)
Air Dwpt 6 hour altimeter (in) sea level (mb) 1 hr 3 hr 6 hr
Max. Min.
07 13:56 SE 7 10.00 Fair CLR 81 57 44% 81 30.02 1015.8
07 12:56 Vrbl 7 10.00 Fair CLR 77 59 54% 79 30.03 1016.4
07 11:56 Vrbl 5 10.00 Fair CLR 71.1 57 61% 30.06 1017.3
07 10:56 Calm 10.00 Fair CLR 64 54 64 50 70% 30.08 1017.9
07 09:56 Vrbl 3 10.00 Partly Cloudy SCT007 59 52 78% 30.09 1018.5
07 08:56 Calm 7.00 Overcast OVC004 53.1 51.1 93% 30.1 1018.9
07 07:56 Calm 6.00 Fog/Mist OVC003 52 51.1 97% 30.11 1019.1
07 06:56 Calm 2.50 Fog/Mist OVC002 52 51.1 97% 30.09 1018.4
07 05:56 Calm 9.00 Overcast OVC006 51.1 50 96% 30.08 1018.1
07 04:56 Calm 1.50 Fog/Mist BKN002 BKN006 51.1 50 59 51.1 96% 30.08 1017.9
07 03:56 N 3 10.00 Fair CLR 52 48.9 89% 30.08 1017.9
07 02:56 Calm 10.00 Fair CLR 52 50 93% 30.07 1017.7
07 01:56 Calm 10.00 Fair CLR 54 50 87% 30.08 1017.8
07 00:56 Calm 10.00 Fair CLR 55 51.1 87% 30.08 1017.9
06 23:56 Calm 10.00 Fair CLR 55.9 51.1 84% 30.08 1018.0
06 22:56 N 3 10.00 Fair CLR 59 52 78.1 59 78% 30.08 1018.0
06 21:56 Calm 10.00 Fair CLR 62.1 53.1 73% 30.08 1017.9
06 20:56 N 5 10.00 Fair CLR 64.9 52 63% 30.07 1017.5
06 19:56 NE 6 10.00 Fair CLR 68 52 57% 30.05 1017.1
06 18:56 N 7 10.00 Fair CLR 73 53.1 50% 30.05 1016.8
06 17:56 NW 8 10.00 Fair CLR 75.9 55 48% 78 30.05 1016.8
06 16:56 N 13 10.00 Fair CLR 78.1 55 80.1 66 45% 79 30.03 1016.4
06 15:56 N 12 G 21 10.00 Fair CLR 79 57 47% 80 30.04 1016.6
06 14:56 N 6 10.00 Fair CLR 80.1 55.9 44% 80 30.06 1017.4
06 13:56 Calm 10.00 Fair CLR 75.9 55 48% 78 30.08 1018.1
06 12:56 Vrbl 5 10.00 Fair CLR 73.9 53.1 48% 30.11 1018.8
06 11:56 Vrbl 3 10.00 Fair CLR 71.1 54 55% 30.12 1019.6
06 10:56 Calm 10.00 Fair CLR 66.9 53.1 66.9 55.9 61% 30.13 1019.8
06 09:56 NW 3 10.00 A Few Clouds FEW033 63 52 68% 30.14 1020.2
06 08:56 Calm 10.00 Overcast OVC034 59 51.1 75% 30.15 1020.4
06 07:56 Calm 10.00 Overcast FEW017 OVC034 57 50 78% 30.15 1020.4
06 06:56 N 3 10.00 Overcast OVC016 55.9 50 81% 30.14 1020.0
06 05:56 N 5 10.00 Overcast OVC017 55.9 50 81% 30.12 1019.4
06 04:56 Vrbl 3 10.00 Overcast OVC018 55.9 50 55.9 55.9 81% 30.11 1019.2
06 03:56 Calm 10.00 Overcast SCT018 OVC027 55.9 50 81% 30.1 1018.7
06 02:56 Calm 10.00 Overcast OVC019 55.9 50 81% 30.09 1018.3
06 01:56 Calm 10.00 Overcast BKN016 OVC022 55.9 48.9 77% 30.08 1018.2
06 00:56 N 5 10.00 Overcast OVC018 55.9 48.9 77% 30.09 1018.3
05 23:56 N 5 10.00 Overcast OVC018 55.9 50 81% 30.07 1017.9
05 22:56 Vrbl 3 10.00 Overcast OVC019 55.9 50 70 55.9 81% 30.06 1017.3
05 21:56 Vrbl 3 10.00 Overcast OVC022 57 50 78% 30.05 1017.0
05 20:56 Calm 10.00 Overcast BKN024 OVC041 57 50 78% 30.02 1016.1
05 19:56 N 6 10.00 Fair CLR 57.9 50 75% 29.99 1014.9
05 18:56 N 7 10.00 Fair CLR 63 51.1 65% 29.96 1014.1
05 17:56 N 9 10.00 Partly Cloudy SCT035 66 51.1 59% 29.94 1013.5
05 16:56 N 12 10.00 Overcast OVC038 70 52 72 62.1 53% 29.93 1013.0
05 15:56 NW 10 10.00 Mostly Cloudy BKN040 69.1 52 55% 29.93 1013.0
05 14:56 NW 7 10.00 Partly Cloudy SCT039 72 53.1 52% 29.94 1013.3
05 13:56 Vrbl 5 10.00 A Few Clouds FEW038 70 51.1 51% 29.95 1013.7
05 12:56 Vrbl 5 10.00 Fair CLR 66.9 51.1 57% 29.97 1014.2
05 11:56 Calm 10.00 Partly Cloudy SCT028 64 50 60% 29.98 1014.7
05 10:56 N 7 10.00 Partly Cloudy SCT029 62.1 48.9 62.1 53.1 62% 29.98 1014.7
05 09:56 Vrbl 3 10.00 Overcast OVC023 57.9 46.9 67% 29.98 1014.7
05 08:56 Vrbl 5 10.00 Overcast BKN024 OVC029 59 48 67% 29.97 1014.5
05 07:56 N 5 10.00 Overcast OVC028 55 48 77% 29.97 1014.4
05 06:56 Calm 10.00 Overcast BKN027 OVC050 54 48 80% 29.96 1014.1
05 05:56 Calm 10.00 Overcast OVC055 53.1 48 83% 29.95 1013.7
05 04:56 NE 3 10.00 Overcast OVC055 53.1 48 54 53.1 83% 29.94 1013.5
05 03:56 N 5 10.00 Overcast FEW020 OVC045 54 46.9 77% 29.95 1013.6
05 02:56 N 8 10.00 Mostly Cloudy BKN044 54 46.9 77% 29.95 1013.7
05 01:56 N 7 10.00 Overcast FEW020 BKN041 OVC050 54 46.9 77% 29.96 1014.0
05 00:56 NW 5 10.00 Overcast FEW023 OVC042 54 48 80% 29.97 1014.6
04 23:56 N 6 10.00 Overcast OVC021 54 48.9 83% 29.97 1014.6
04 22:56 N 6 10.00 Overcast OVC045 54 48 61 54 80% 29.99 1015.1
04 21:56 N 7 10.00 Overcast BKN040 BKN047 OVC060 55 46 72% 29.99 1015.2
04 20:56 N 9 10.00 Overcast OVC034 55.9 48.9 77% 29.97 1014.6
04 19:56 N 7 10.00 Light Rain OVC022 55.9 50 81% 29.96 1014.0
04 18:56 N 5 10.00 Overcast OVC020 57.9 50 75% 29.96 1014.2
04 17:56 W 6 10.00 Overcast OVC023 60.1 51.1 72% 29.95 1013.8
04 16:56 Vrbl 3 10.00 Overcast SCT024 OVC030 60.1 51.1 61 54 72% 29.95 1013.8 0.08
04 15:56 Calm 10.00 Overcast BKN021 BKN027 OVC035 60.1 52 75% 29.95 1014.0
04 14:56 Calm 10.00 Overcast BKN021 OVC095 60.1 51.1 72% 29.97 1014.6
Date Time (pdt) Wind (mph) Vis. (mi.) Weather Sky Cond. Air Dwpt Max. Min. Relative Humidity Wind Chill (°F) Heat Index (°F) altimeter (in) sea level (mb) 1 hr 3 hr 6 hr
6 hour
Temperature (ºF) Pressure Precipitation (in)